contact:dominique.lefevre@mio.osupytheas.fr, maurice.libes@osupytheas.fr, didier.mallarino@osupytheas.fr
Project:EMSO http://www.emso-fr.org/EMSO-France
Depth: 2436.0 m
Title:EMSO Ligure Ouest : Data MII capteur MICROCAT
DateTime_Computer,Latitude,Longitude,Temperature,Conductivity,Pressure,DateTime_Instrument
DateTime_Computer,Latitude,Longitude,degC,S m-1,dbar,DateTime_Instrument
2019-12-29T00:01:33Z,42.805,6.029,13.2962,4.59961,2470.017,2019-12-29T02:02:04Z
2019-12-29T00:04:36Z,42.805,6.029,13.2964,4.59961,2470.04,2019-12-29T02:05:07Z
2019-12-29T00:07:39Z,42.805,6.029,13.2963,4.59962,2470.017,2019-12-29T02:08:10Z
2019-12-29T00:10:42Z,42.805,6.029,13.2960,4.59961,2470.017,2019-12-29T02:11:14Z
2019-12-29T00:13:46Z,42.805,6.029,13.2965,4.59961,2470.03,2019-12-29T02:14:17Z
2019-12-29T00:16:49Z,42.805,6.029,13.2962,4.59961,2470.007,2019-12-29T02:17:20Z
2019-12-29T00:19:52Z,42.805,6.029,13.2964,4.59963,2470.007,2019-12-29T02:20:23Z
2019-12-29T00:22:55Z,42.805,6.029,13.2962,4.59962,2469.993,2019-12-29T02:23:26Z
2019-12-29T00:25:58Z,42.805,6.029,13.2967,4.59962,2469.96,2019-12-29T02:26:30Z
2019-12-29T00:29:02Z,42.805,6.029,13.2967,4.59962,2469.984,2019-12-29T02:29:33Z
2019-12-29T00:32:05Z,42.805,6.029,13.2964,4.59962,2469.993,2019-12-29T02:32:36Z
2019-12-29T00:35:08Z,42.805,6.029,13.2965,4.59961,2469.97,2019-12-29T02:35:39Z
2019-12-29T00:38:12Z,42.805,6.029,13.2965,4.59962,2469.97,2019-12-29T02:38:43Z
2019-12-29T00:41:15Z,42.805,6.029,13.2967,4.59961,2469.96,2019-12-29T02:41:46Z
2019-12-29T00:44:18Z,42.805,6.029,13.2964,4.59962,2469.993,2019-12-29T02:44:49Z
2019-12-29T00:47:21Z,42.805,6.029,13.2964,4.59961,2469.97,2019-12-29T02:47:52Z
2019-12-29T00:50:24Z,42.805,6.029,13.2964,4.59962,2469.947,2019-12-29T02:50:56Z
2019-12-29T00:53:28Z,42.805,6.029,13.2966,4.59962,2469.984,2019-12-29T02:53:59Z
2019-12-29T00:56:31Z,42.805,6.029,13.2967,4.59962,2469.97,2019-12-29T02:57:02Z
2019-12-29T00:59:34Z,42.805,6.029,13.2965,4.59963,2469.984,2019-12-29T03:00:05Z
2019-12-29T01:02:37Z,42.805,6.029,13.2965,4.59962,2469.97,2019-12-29T03:03:09Z
2019-12-29T01:05:41Z,42.805,6.029,13.2965,4.59963,2469.97,2019-12-29T03:06:12Z
2019-12-29T01:08:44Z,42.805,6.029,13.2965,4.59963,2469.984,2019-12-29T03:09:15Z
2019-12-29T01:11:47Z,42.805,6.029,13.2968,4.59963,2469.984,2019-12-29T03:12:18Z
2019-12-29T01:14:50Z,42.805,6.029,13.2969,4.59964,2469.97,2019-12-29T03:15:21Z
2019-12-29T01:17:54Z,42.805,6.029,13.2967,4.59966,2469.947,2019-12-29T03:18:25Z
2019-12-29T01:20:57Z,42.805,6.029,13.2968,4.59966,2469.993,2019-12-29T03:21:28Z
2019-12-29T01:24:00Z,42.805,6.029,13.2972,4.59966,2469.97,2019-12-29T03:24:31Z
2019-12-29T01:27:03Z,42.805,6.029,13.2969,4.59965,2469.984,2019-12-29T03:27:34Z
2019-12-29T01:30:07Z,42.805,6.029,13.2965,4.59965,2469.947,2019-12-29T03:30:38Z
2019-12-29T01:33:10Z,42.805,6.029,13.2967,4.59966,2469.96,2019-12-29T03:33:41Z
2019-12-29T01:36:13Z,42.805,6.029,13.2969,4.59966,2469.97,2019-12-29T03:36:44Z
2019-12-29T01:39:16Z,42.805,6.029,13.2971,4.59966,2469.947,2019-12-29T03:39:47Z
2019-12-29T01:42:20Z,42.805,6.029,13.2970,4.59966,2469.97,2019-12-29T03:42:51Z
2019-12-29T01:45:23Z,42.805,6.029,13.2971,4.59965,2469.933,2019-12-29T03:45:54Z
2019-12-29T01:48:26Z,42.805,6.029,13.2968,4.59966,2469.947,2019-12-29T03:48:57Z
2019-12-29T01:51:29Z,42.805,6.029,13.2961,4.59965,2469.947,2019-12-29T03:52:01Z
2019-12-29T01:54:33Z,42.805,6.029,13.2971,4.59966,2469.947,2019-12-29T03:55:04Z
2019-12-29T01:57:36Z,42.805,6.029,13.2971,4.59965,2469.97,2019-12-29T03:58:07Z
2019-12-29T02:00:39Z,42.805,6.029,13.2964,4.59965,2469.96,2019-12-29T04:01:10Z
2019-12-29T02:03:42Z,42.805,6.029,13.2966,4.59966,2469.984,2019-12-29T04:04:13Z
2019-12-29T02:06:45Z,42.805,6.029,13.2967,4.59965,2469.937,2019-12-29T04:07:17Z
2019-12-29T02:09:49Z,42.805,6.029,13.2969,4.59964,2469.96,2019-12-29T04:10:20Z
2019-12-29T02:12:52Z,42.805,6.029,13.2964,4.59965,2469.947,2019-12-29T04:13:23Z
2019-12-29T02:15:55Z,42.805,6.029,13.2963,4.59965,2469.947,2019-12-29T04:16:26Z
2019-12-29T02:18:58Z,42.805,6.029,13.2967,4.59963,2469.947,2019-12-29T04:19:29Z
2019-12-29T02:22:01Z,42.805,6.029,13.2968,4.59964,2469.947,2019-12-29T04:22:33Z
2019-12-29T02:25:05Z,42.805,6.029,13.2966,4.59964,2469.947,2019-12-29T04:25:36Z
2019-12-29T02:28:08Z,42.805,6.029,13.2968,4.59963,2469.947,2019-12-29T04:28:39Z
2019-12-29T02:31:11Z,42.805,6.029,13.2968,4.59963,2469.947,2019-12-29T04:31:42Z
2019-12-29T02:34:15Z,42.805,6.029,13.2968,4.59965,2469.947,2019-12-29T04:34:46Z
2019-12-29T02:37:18Z,42.805,6.029,13.2967,4.59963,2469.96,2019-12-29T04:37:49Z
2019-12-29T02:40:21Z,42.805,6.029,13.2965,4.59964,2469.96,2019-12-29T04:40:52Z
2019-12-29T02:43:24Z,42.805,6.029,13.2966,4.59963,2469.947,2019-12-29T04:43:55Z
2019-12-29T02:46:27Z,42.805,6.029,13.2967,4.59964,2469.937,2019-12-29T04:46:59Z
2019-12-29T02:49:31Z,42.805,6.029,13.2967,4.59964,2469.937,2019-12-29T04:50:02Z
2019-12-29T02:52:34Z,42.805,6.029,13.2967,4.59963,2469.937,2019-12-29T04:53:05Z
2019-12-29T02:55:37Z,42.805,6.029,13.2967,4.59963,2469.97,2019-12-29T04:56:08Z
2019-12-29T02:58:40Z,42.805,6.029,13.2967,4.59964,2469.937,2019-12-29T04:59:11Z
2019-12-29T03:01:44Z,42.805,6.029,13.2965,4.59963,2469.96,2019-12-29T05:02:15Z
2019-12-29T03:04:47Z,42.805,6.029,13.2967,4.59962,2469.947,2019-12-29T05:05:18Z
2019-12-29T03:07:50Z,42.805,6.029,13.2967,4.59963,2469.937,2019-12-29T05:08:21Z
2019-12-29T03:10:53Z,42.805,6.029,13.2964,4.59963,2469.923,2019-12-29T05:11:24Z
2019-12-29T03:13:56Z,42.805,6.029,13.2964,4.59962,2469.984,2019-12-29T05:14:28Z
2019-12-29T03:17:00Z,42.805,6.029,13.2967,4.59963,2469.947,2019-12-29T05:17:31Z
2019-12-29T03:20:03Z,42.805,6.029,13.2964,4.59962,2469.96,2019-12-29T05:20:34Z
2019-12-29T03:23:06Z,42.805,6.029,13.2967,4.59962,2469.923,2019-12-29T05:23:37Z
2019-12-29T03:26:09Z,42.805,6.029,13.2967,4.59963,2469.97,2019-12-29T05:26:40Z
2019-12-29T03:29:12Z,42.805,6.029,13.2963,4.59962,2469.96,2019-12-29T05:29:44Z
2019-12-29T03:32:16Z,42.805,6.029,13.2964,4.59962,2469.96,2019-12-29T05:32:47Z
2019-12-29T03:35:19Z,42.805,6.029,13.2965,4.59963,2469.947,2019-12-29T05:35:50Z
2019-12-29T03:38:22Z,42.805,6.029,13.2964,4.59962,2469.947,2019-12-29T05:38:53Z
2019-12-29T03:41:25Z,42.805,6.029,13.2964,4.59962,2469.947,2019-12-29T05:41:56Z
2019-12-29T03:44:29Z,42.805,6.029,13.2964,4.59963,2469.97,2019-12-29T05:45:00Z
2019-12-29T03:47:32Z,42.805,6.029,13.2965,4.59963,2469.947,2019-12-29T05:48:03Z
2019-12-29T03:50:35Z,42.805,6.029,13.2963,4.59962,2469.947,2019-12-29T05:51:06Z
2019-12-29T03:53:38Z,42.805,6.029,13.2961,4.59963,2469.947,2019-12-29T05:54:09Z
2019-12-29T03:56:42Z,42.805,6.029,13.2962,4.59961,2469.947,2019-12-29T05:57:13Z
2019-12-29T03:59:45Z,42.805,6.029,13.2958,4.59962,2469.947,2019-12-29T06:00:16Z
2019-12-29T04:02:48Z,42.805,6.029,13.2963,4.59961,2469.947,2019-12-29T06:03:19Z
2019-12-29T04:05:51Z,42.805,6.029,13.2961,4.59961,2469.97,2019-12-29T06:06:22Z
2019-12-29T04:08:54Z,42.805,6.029,13.2964,4.59961,2469.96,2019-12-29T06:09:25Z
2019-12-29T04:11:58Z,42.805,6.029,13.2963,4.59962,2469.984,2019-12-29T06:12:29Z
2019-12-29T04:15:01Z,42.805,6.029,13.2963,4.59961,2469.947,2019-12-29T06:15:32Z
2019-12-29T04:18:04Z,42.805,6.029,13.2963,4.59961,2469.947,2019-12-29T06:18:35Z
2019-12-29T04:21:07Z,42.805,6.029,13.2967,4.59961,2470.007,2019-12-29T06:21:38Z
2019-12-29T04:24:11Z,42.805,6.029,13.2967,4.59961,2469.97,2019-12-29T06:24:42Z
2019-12-29T04:27:14Z,42.805,6.029,13.2964,4.59962,2469.947,2019-12-29T06:27:45Z
2019-12-29T04:30:17Z,42.805,6.029,13.2964,4.59962,2469.97,2019-12-29T06:30:48Z
2019-12-29T04:33:20Z,42.805,6.029,13.2964,4.59962,2469.97,2019-12-29T06:33:51Z
2019-12-29T04:36:23Z,42.805,6.029,13.2964,4.59961,2469.984,2019-12-29T06:36:55Z
2019-12-29T04:39:27Z,42.805,6.029,13.2964,4.59961,2469.984,2019-12-29T06:39:58Z
2019-12-29T04:42:30Z,42.805,6.029,13.2964,4.59962,2469.984,2019-12-29T06:43:01Z
2019-12-29T04:45:33Z,42.805,6.029,13.2967,4.59963,2469.96,2019-12-29T06:46:04Z
2019-12-29T04:48:36Z,42.805,6.029,13.2966,4.59961,2469.984,2019-12-29T06:49:08Z
2019-12-29T04:51:40Z,42.805,6.029,13.2962,4.59961,2469.933,2019-12-29T06:52:11Z
2019-12-29T04:54:43Z,42.805,6.029,13.2966,4.59961,2469.984,2019-12-29T06:55:14Z
2019-12-29T04:57:46Z,42.805,6.029,13.2962,4.59961,2469.993,2019-12-29T06:58:17Z
2019-12-29T05:00:49Z,42.805,6.029,13.2967,4.59962,2469.947,2019-12-29T07:01:20Z
2019-12-29T05:03:53Z,42.805,6.029,13.2964,4.59962,2469.956,2019-12-29T07:04:24Z
2019-12-29T05:06:56Z,42.805,6.029,13.2960,4.59962,2470.007,2019-12-29T07:07:27Z
2019-12-29T05:09:59Z,42.805,6.029,13.2966,4.59961,2470.03,2019-12-29T07:10:30Z
2019-12-29T05:13:02Z,42.805,6.029,13.2964,4.59962,2469.993,2019-12-29T07:13:33Z
2019-12-29T05:16:05Z,42.805,6.029,13.2964,4.59961,2470.007,2019-12-29T07:16:37Z
2019-12-29T05:19:09Z,42.805,6.029,13.2964,4.59962,2469.993,2019-12-29T07:19:40Z
2019-12-29T05:22:12Z,42.805,6.029,13.2961,4.59962,2469.993,2019-12-29T07:22:43Z
2019-12-29T05:25:15Z,42.805,6.029,13.2964,4.59962,2470.017,2019-12-29T07:25:46Z
2019-12-29T05:28:18Z,42.805,6.029,13.2969,4.59962,2470.007,2019-12-29T07:28:50Z
2019-12-29T05:31:22Z,42.805,6.029,13.2964,4.59962,2470.03,2019-12-29T07:31:53Z
2019-12-29T05:34:25Z,42.805,6.029,13.2964,4.59963,2470.03,2019-12-29T07:34:56Z
2019-12-29T05:37:28Z,42.805,6.029,13.2964,4.59962,2470.053,2019-12-29T07:37:59Z
2019-12-29T05:40:31Z,42.805,6.029,13.2967,4.59961,2470.053,2019-12-29T07:41:02Z
2019-12-29T05:43:34Z,42.805,6.029,13.2964,4.59963,2470.017,2019-12-29T07:44:06Z
2019-12-29T05:46:38Z,42.805,6.029,13.2964,4.59962,2470.017,2019-12-29T07:47:09Z
2019-12-29T05:49:41Z,42.805,6.029,13.2965,4.59962,2470.03,2019-12-29T07:50:12Z
2019-12-29T05:52:44Z,42.805,6.029,13.2964,4.59963,2470.053,2019-12-29T07:53:15Z
2019-12-29T05:55:47Z,42.805,6.029,13.2964,4.59962,2470.007,2019-12-29T07:56:18Z
2019-12-29T05:58:51Z,42.805,6.029,13.2961,4.59962,2470.053,2019-12-29T07:59:22Z
2019-12-29T06:01:54Z,42.805,6.029,13.2964,4.59962,2470.063,2019-12-29T08:02:25Z
2019-12-29T06:04:57Z,42.805,6.029,13.2965,4.59963,2470.077,2019-12-29T08:05:28Z
2019-12-29T06:08:00Z,42.805,6.029,13.2961,4.59962,2470.04,2019-12-29T08:08:31Z
2019-12-29T06:11:03Z,42.805,6.029,13.2966,4.59964,2470.053,2019-12-29T08:11:35Z
2019-12-29T06:14:07Z,42.805,6.029,13.2966,4.59963,2470.04,2019-12-29T08:14:38Z
2019-12-29T06:17:10Z,42.805,6.029,13.2967,4.59963,2470.077,2019-12-29T08:17:41Z
2019-12-29T06:20:13Z,42.805,6.029,13.2964,4.59963,2470.063,2019-12-29T08:20:44Z
2019-12-29T06:23:16Z,42.805,6.029,13.2964,4.59963,2470.087,2019-12-29T08:23:47Z
2019-12-29T06:26:20Z,42.805,6.029,13.2964,4.59963,2470.087,2019-12-29T08:26:51Z
2019-12-29T06:29:23Z,42.805,6.029,13.2963,4.59963,2470.087,2019-12-29T08:29:54Z
2019-12-29T06:32:26Z,42.805,6.029,13.2968,4.59963,2470.087,2019-12-29T08:32:57Z
2019-12-29T06:35:29Z,42.805,6.029,13.2966,4.59963,2470.1,2019-12-29T08:36:00Z
2019-12-29T06:38:32Z,42.805,6.029,13.2965,4.59963,2470.1,2019-12-29T08:39:04Z
2019-12-29T06:41:36Z,42.805,6.029,13.2964,4.59964,2470.087,2019-12-29T08:42:07Z
2019-12-29T06:44:39Z,42.805,6.029,13.2967,4.59963,2470.124,2019-12-29T08:45:10Z
2019-12-29T06:47:42Z,42.805,6.029,13.2967,4.59963,2470.124,2019-12-29T08:48:13Z
2019-12-29T06:50:45Z,42.805,6.029,13.2968,4.59964,2470.133,2019-12-29T08:51:17Z
2019-12-29T06:53:49Z,42.805,6.029,13.2962,4.59964,2470.11,2019-12-29T08:54:20Z
2019-12-29T06:56:52Z,42.805,6.029,13.2968,4.59966,2470.147,2019-12-29T08:57:23Z
2019-12-29T06:59:55Z,42.805,6.029,13.2964,4.59964,2470.11,2019-12-29T09:00:26Z
2019-12-29T07:02:58Z,42.805,6.029,13.2966,4.59964,2470.133,2019-12-29T09:03:30Z
2019-12-29T07:06:02Z,42.805,6.029,13.2967,4.59965,2470.11,2019-12-29T09:06:33Z
2019-12-29T07:09:05Z,42.805,6.029,13.2966,4.59964,2470.11,2019-12-29T09:09:36Z
2019-12-29T07:12:08Z,42.805,6.029,13.2967,4.59966,2470.147,2019-12-29T09:12:39Z
2019-12-29T07:15:11Z,42.805,6.029,13.2968,4.59964,2470.124,2019-12-29T09:15:42Z
2019-12-29T07:18:15Z,42.805,6.029,13.2967,4.59964,2470.156,2019-12-29T09:18:46Z
2019-12-29T07:21:18Z,42.805,6.029,13.2967,4.59965,2470.133,2019-12-29T09:21:49Z
2019-12-29T07:24:21Z,42.805,6.029,13.2968,4.59964,2470.156,2019-12-29T09:24:52Z
2019-12-29T07:27:24Z,42.805,6.029,13.2967,4.59967,2470.147,2019-12-29T09:27:55Z
2019-12-29T07:30:28Z,42.805,6.029,13.2968,4.59964,2470.147,2019-12-29T09:30:59Z
2019-12-29T07:33:31Z,42.805,6.029,13.2960,4.59964,2470.171,2019-12-29T09:34:02Z
2019-12-29T07:36:34Z,42.805,6.029,13.2968,4.59964,2470.18,2019-12-29T09:37:05Z
2019-12-29T07:39:37Z,42.805,6.029,13.2967,4.59964,2470.156,2019-12-29T09:40:08Z
2019-12-29T07:42:40Z,42.805,6.029,13.2967,4.59964,2470.156,2019-12-29T09:43:12Z
2019-12-29T07:45:44Z,42.805,6.029,13.2968,4.59966,2470.156,2019-12-29T09:46:15Z
2019-12-29T07:48:47Z,42.805,6.029,13.2964,4.59964,2470.194,2019-12-29T09:49:18Z
2019-12-29T07:51:50Z,42.805,6.029,13.2966,4.59965,2470.194,2019-12-29T09:52:21Z
2019-12-29T07:54:53Z,42.805,6.029,13.2967,4.59965,2470.203,2019-12-29T09:55:24Z
2019-12-29T07:57:57Z,42.805,6.029,13.2965,4.59966,2470.217,2019-12-29T09:58:28Z
2019-12-29T08:01:00Z,42.805,6.029,13.2966,4.59966,2470.194,2019-12-29T10:01:31Z
2019-12-29T08:04:03Z,42.805,6.029,13.2966,4.59966,2470.203,2019-12-29T10:04:34Z
2019-12-29T08:07:06Z,42.805,6.029,13.2966,4.59966,2470.18,2019-12-29T10:07:37Z
2019-12-29T08:10:09Z,42.805,6.029,13.2967,4.59966,2470.203,2019-12-29T10:10:40Z
2019-12-29T08:13:13Z,42.805,6.029,13.2965,4.59966,2470.217,2019-12-29T10:13:44Z
2019-12-29T08:16:16Z,42.805,6.029,13.2970,4.59968,2470.203,2019-12-29T10:16:47Z
2019-12-29T08:19:19Z,42.805,6.029,13.2971,4.59966,2470.18,2019-12-29T10:19:50Z
2019-12-29T08:22:22Z,42.805,6.029,13.2966,4.59966,2470.18,2019-12-29T10:22:54Z
2019-12-29T08:25:26Z,42.805,6.029,13.2967,4.59967,2470.194,2019-12-29T10:25:57Z
2019-12-29T08:28:29Z,42.805,6.029,13.2968,4.59966,2470.217,2019-12-29T10:29:00Z
2019-12-29T08:31:32Z,42.805,6.029,13.2966,4.59965,2470.171,2019-12-29T10:32:03Z
2019-12-29T08:34:35Z,42.805,6.029,13.2969,4.59966,2470.217,2019-12-29T10:35:06Z
2019-12-29T08:37:38Z,42.805,6.029,13.2966,4.59967,2470.227,2019-12-29T10:38:10Z
2019-12-29T08:40:42Z,42.805,6.029,13.2969,4.59966,2470.227,2019-12-29T10:41:13Z
2019-12-29T08:43:45Z,42.805,6.029,13.2970,4.59968,2470.227,2019-12-29T10:44:16Z
2019-12-29T08:46:48Z,42.805,6.029,13.2967,4.59967,2470.217,2019-12-29T10:47:19Z
2019-12-29T08:49:51Z,42.805,6.029,13.2974,4.59970,2470.227,2019-12-29T10:50:23Z
2019-12-29T08:52:55Z,42.805,6.029,13.2974,4.59973,2470.203,2019-12-29T10:53:26Z
2019-12-29T08:55:58Z,42.805,6.029,13.2973,4.59972,2470.227,2019-12-29T10:56:29Z
2019-12-29T08:59:01Z,42.805,6.029,13.2974,4.59973,2470.203,2019-12-29T10:59:32Z
2019-12-29T09:02:04Z,42.805,6.029,13.2974,4.59973,2470.24,2019-12-29T11:02:36Z
2019-12-29T09:05:08Z,42.805,6.029,13.2972,4.59973,2470.203,2019-12-29T11:05:39Z
2019-12-29T09:08:11Z,42.805,6.029,13.2979,4.59975,2470.18,2019-12-29T11:08:42Z
2019-12-29T09:11:14Z,42.805,6.029,13.2977,4.59974,2470.227,2019-12-29T11:11:45Z
2019-12-29T09:14:17Z,42.805,6.029,13.2973,4.59975,2470.24,2019-12-29T11:14:49Z
2019-12-29T09:17:21Z,42.805,6.029,13.2976,4.59980,2470.227,2019-12-29T11:17:52Z
2019-12-29T09:20:24Z,42.805,6.029,13.2976,4.59976,2470.227,2019-12-29T11:20:55Z
2019-12-29T09:23:27Z,42.805,6.029,13.2981,4.59976,2470.203,2019-12-29T11:23:58Z
2019-12-29T09:26:30Z,42.805,6.029,13.2979,4.59977,2470.203,2019-12-29T11:27:02Z
2019-12-29T09:29:34Z,42.805,6.029,13.2980,4.59980,2470.18,2019-12-29T11:30:05Z
2019-12-29T09:32:37Z,42.805,6.029,13.2986,4.59980,2470.227,2019-12-29T11:33:08Z
2019-12-29T09:35:40Z,42.805,6.029,13.2983,4.59981,2470.217,2019-12-29T11:36:11Z
2019-12-29T09:38:43Z,42.805,6.029,13.2980,4.59981,2470.217,2019-12-29T11:39:15Z
2019-12-29T09:41:47Z,42.805,6.029,13.2981,4.59980,2470.217,2019-12-29T11:42:18Z
2019-12-29T09:44:50Z,42.805,6.029,13.2982,4.59981,2470.203,2019-12-29T11:45:21Z
2019-12-29T09:47:53Z,42.805,6.029,13.2983,4.59981,2470.227,2019-12-29T11:48:24Z
2019-12-29T09:50:56Z,42.805,6.029,13.2985,4.59982,2470.217,2019-12-29T11:51:28Z
2019-12-29T09:54:00Z,42.805,6.029,13.2982,4.59983,2470.217,2019-12-29T11:54:31Z
2019-12-29T09:57:03Z,42.805,6.029,13.2983,4.59984,2470.25,2019-12-29T11:57:34Z
2019-12-29T10:00:06Z,42.805,6.029,13.2984,4.59987,2470.217,2019-12-29T12:00:38Z
2019-12-29T10:03:10Z,42.805,6.029,13.2982,4.59986,2470.194,2019-12-29T12:03:41Z
2019-12-29T10:06:13Z,42.805,6.029,13.2984,4.59986,2470.24,2019-12-29T12:06:44Z
2019-12-29T10:09:16Z,42.805,6.029,13.2987,4.59986,2470.18,2019-12-29T12:09:47Z
2019-12-29T10:12:19Z,42.805,6.029,13.2985,4.59986,2470.24,2019-12-29T12:12:50Z
2019-12-29T10:15:23Z,42.805,6.029,13.2985,4.59986,2470.227,2019-12-29T12:15:54Z
2019-12-29T10:18:26Z,42.805,6.029,13.2989,4.59986,2470.24,2019-12-29T12:18:57Z
2019-12-29T10:21:30Z,42.805,6.029,13.2983,4.59986,2470.217,2019-12-29T12:22:01Z
2019-12-29T10:24:33Z,42.805,6.029,13.2985,4.59985,2470.227,2019-12-29T12:25:04Z
2019-12-29T10:27:36Z,42.805,6.029,13.2987,4.59986,2470.227,2019-12-29T12:28:07Z
2019-12-29T10:30:39Z,42.805,6.029,13.2986,4.59986,2470.203,2019-12-29T12:31:10Z
2019-12-29T10:33:42Z,42.805,6.029,13.2987,4.59986,2470.24,2019-12-29T12:34:13Z
2019-12-29T10:36:46Z,42.805,6.029,13.2987,4.59985,2470.203,2019-12-29T12:37:17Z
2019-12-29T10:39:49Z,42.805,6.029,13.2982,4.59984,2470.217,2019-12-29T12:40:20Z
2019-12-29T10:42:52Z,42.805,6.029,13.2985,4.59985,2470.203,2019-12-29T12:43:23Z
2019-12-29T10:45:55Z,42.805,6.029,13.2982,4.59984,2470.217,2019-12-29T12:46:27Z
2019-12-29T10:48:59Z,42.805,6.029,13.2983,4.59986,2470.203,2019-12-29T12:49:30Z
2019-12-29T10:52:02Z,42.805,6.029,13.2987,4.59984,2470.18,2019-12-29T12:52:33Z
2019-12-29T10:55:05Z,42.805,6.029,13.2984,4.59986,2470.203,2019-12-29T12:55:36Z
2019-12-29T10:58:08Z,42.805,6.029,13.2985,4.59985,2470.217,2019-12-29T12:58:39Z
2019-12-29T11:01:12Z,42.805,6.029,13.2983,4.59987,2470.217,2019-12-29T13:01:43Z
2019-12-29T11:04:15Z,42.805,6.029,13.2983,4.59985,2470.203,2019-12-29T13:04:46Z
2019-12-29T11:07:18Z,42.805,6.029,13.2979,4.59983,2470.18,2019-12-29T13:07:49Z
2019-12-29T11:10:21Z,42.805,6.029,13.2985,4.59983,2470.217,2019-12-29T13:10:52Z
2019-12-29T11:13:25Z,42.805,6.029,13.2979,4.59982,2470.194,2019-12-29T13:13:56Z
2019-12-29T11:16:28Z,42.805,6.029,13.2981,4.59983,2470.18,2019-12-29T13:16:59Z
2019-12-29T11:19:31Z,42.805,6.029,13.2979,4.59984,2470.203,2019-12-29T13:20:02Z
2019-12-29T11:22:34Z,42.805,6.029,13.2979,4.59982,2470.18,2019-12-29T13:23:05Z
2019-12-29T11:25:37Z,42.805,6.029,13.2982,4.59983,2470.18,2019-12-29T13:26:09Z
2019-12-29T11:28:41Z,42.805,6.029,13.2978,4.59982,2470.203,2019-12-29T13:29:12Z
2019-12-29T11:31:44Z,42.805,6.029,13.2979,4.59984,2470.203,2019-12-29T13:32:15Z
2019-12-29T11:34:47Z,42.805,6.029,13.2981,4.59985,2470.194,2019-12-29T13:35:18Z
2019-12-29T11:37:51Z,42.805,6.029,13.2979,4.59983,2470.217,2019-12-29T13:38:22Z
2019-12-29T11:40:54Z,42.805,6.029,13.2986,4.59983,2470.133,2019-12-29T13:41:25Z
2019-12-29T11:43:57Z,42.805,6.029,13.2980,4.59983,2470.166,2019-12-29T13:44:28Z
2019-12-29T11:47:00Z,42.805,6.029,13.2980,4.59981,2470.194,2019-12-29T13:47:31Z
2019-12-29T11:50:03Z,42.805,6.029,13.2981,4.59980,2470.171,2019-12-29T13:50:35Z
2019-12-29T11:53:07Z,42.805,6.029,13.2983,4.59982,2470.18,2019-12-29T13:53:38Z
2019-12-29T11:56:10Z,42.805,6.029,13.2982,4.59983,2470.171,2019-12-29T13:56:41Z
2019-12-29T11:59:13Z,42.805,6.029,13.2982,4.59984,2470.18,2019-12-29T13:59:44Z
2019-12-29T12:02:16Z,42.805,6.029,13.2979,4.59981,2470.147,2019-12-29T14:02:48Z
2019-12-29T12:05:20Z,42.805,6.029,13.2982,4.59982,2470.171,2019-12-29T14:05:51Z
2019-12-29T12:08:23Z,42.805,6.029,13.2982,4.59981,2470.133,2019-12-29T14:08:54Z
2019-12-29T12:11:26Z,42.805,6.029,13.2982,4.59986,2470.133,2019-12-29T14:11:57Z
2019-12-29T12:14:29Z,42.805,6.029,13.2983,4.59981,2470.133,2019-12-29T14:15:01Z
2019-12-29T12:17:33Z,42.805,6.029,13.2981,4.59981,2470.147,2019-12-29T14:18:04Z
2019-12-29T12:20:36Z,42.805,6.029,13.2980,4.59981,2470.133,2019-12-29T14:21:07Z
2019-12-29T12:23:39Z,42.805,6.029,13.2979,4.59981,2470.124,2019-12-29T14:24:10Z
2019-12-29T12:26:42Z,42.805,6.029,13.2976,4.59981,2470.11,2019-12-29T14:27:13Z
2019-12-29T12:29:45Z,42.805,6.029,13.2984,4.59983,2470.133,2019-12-29T14:30:17Z
2019-12-29T12:32:49Z,42.805,6.029,13.2982,4.59983,2470.133,2019-12-29T14:33:20Z
2019-12-29T12:35:52Z,42.805,6.029,13.2975,4.59986,2470.124,2019-12-29T14:36:23Z
2019-12-29T12:38:55Z,42.805,6.029,13.2982,4.59981,2470.133,2019-12-29T14:39:26Z
2019-12-29T12:41:58Z,42.805,6.029,13.2978,4.59981,2470.147,2019-12-29T14:42:30Z
2019-12-29T12:45:02Z,42.805,6.029,13.2981,4.59983,2470.11,2019-12-29T14:45:33Z
2019-12-29T12:48:05Z,42.805,6.029,13.2979,4.59982,2470.147,2019-12-29T14:48:36Z
2019-12-29T12:51:08Z,42.805,6.029,13.2980,4.59983,2470.124,2019-12-29T14:51:39Z
2019-12-29T12:54:11Z,42.805,6.029,13.2982,4.59982,2470.147,2019-12-29T14:54:42Z
2019-12-29T12:57:15Z,42.805,6.029,13.2981,4.59983,2470.147,2019-12-29T14:57:46Z
2019-12-29T13:00:18Z,42.805,6.029,13.2979,4.59982,2470.1,2019-12-29T15:00:49Z
2019-12-29T13:03:21Z,42.805,6.029,13.2979,4.59982,2470.124,2019-12-29T15:03:52Z
2019-12-29T13:06:24Z,42.805,6.029,13.2981,4.59985,2470.087,2019-12-29T15:06:56Z
2019-12-29T13:09:28Z,42.805,6.029,13.2983,4.59984,2470.11,2019-12-29T15:09:59Z
2019-12-29T13:12:31Z,42.805,6.029,13.2982,4.59983,2470.124,2019-12-29T15:13:02Z
2019-12-29T13:15:34Z,42.805,6.029,13.2982,4.59984,2470.11,2019-12-29T15:16:05Z
2019-12-29T13:18:37Z,42.805,6.029,13.2983,4.59981,2470.171,2019-12-29T15:19:08Z
2019-12-29T13:21:40Z,42.805,6.029,13.2982,4.59982,2470.11,2019-12-29T15:22:12Z
2019-12-29T13:24:44Z,42.805,6.029,13.2984,4.59982,2470.063,2019-12-29T15:25:15Z
2019-12-29T13:27:47Z,42.805,6.029,13.2980,4.59981,2470.1,2019-12-29T15:28:18Z
2019-12-29T13:30:50Z,42.805,6.029,13.2977,4.59981,2470.133,2019-12-29T15:31:22Z
2019-12-29T13:33:54Z,42.805,6.029,13.2982,4.59981,2470.124,2019-12-29T15:34:25Z
2019-12-29T13:36:57Z,42.805,6.029,13.2979,4.59981,2470.11,2019-12-29T15:37:28Z
2019-12-29T13:40:00Z,42.805,6.029,13.2983,4.59981,2470.087,2019-12-29T15:40:31Z
2019-12-29T13:43:03Z,42.805,6.029,13.2982,4.59981,2470.087,2019-12-29T15:43:34Z
2019-12-29T13:46:06Z,42.805,6.029,13.2980,4.59981,2470.087,2019-12-29T15:46:38Z
2019-12-29T13:49:10Z,42.805,6.029,13.2980,4.59982,2470.063,2019-12-29T15:49:41Z
2019-12-29T13:52:13Z,42.805,6.029,13.2979,4.59980,2470.077,2019-12-29T15:52:44Z
2019-12-29T13:55:16Z,42.805,6.029,13.2980,4.59981,2470.1,2019-12-29T15:55:47Z
2019-12-29T13:58:20Z,42.805,6.029,13.2979,4.59982,2470.087,2019-12-29T15:58:51Z
2019-12-29T14:01:23Z,42.805,6.029,13.2979,4.59982,2470.1,2019-12-29T16:01:54Z
2019-12-29T14:04:26Z,42.805,6.029,13.2977,4.59989,2470.087,2019-12-29T16:04:57Z
2019-12-29T14:07:29Z,42.805,6.029,13.2982,4.59983,2470.1,2019-12-29T16:08:00Z
2019-12-29T14:10:32Z,42.805,6.029,13.2979,4.59983,2470.11,2019-12-29T16:11:04Z
2019-12-29T14:13:36Z,42.805,6.029,13.2986,4.59981,2470.063,2019-12-29T16:14:07Z
2019-12-29T14:16:39Z,42.805,6.029,13.2981,4.59980,2470.063,2019-12-29T16:17:10Z
2019-12-29T14:19:42Z,42.805,6.029,13.2981,4.59982,2470.063,2019-12-29T16:20:14Z
2019-12-29T14:22:46Z,42.805,6.029,13.2979,4.59981,2470.063,2019-12-29T16:23:17Z
2019-12-29T14:25:49Z,42.805,6.029,13.2986,4.59981,2470.063,2019-12-29T16:26:20Z
2019-12-29T14:28:52Z,42.805,6.029,13.2982,4.59980,2470.04,2019-12-29T16:29:23Z
2019-12-29T14:31:55Z,42.805,6.029,13.2980,4.59982,2470.1,2019-12-29T16:32:26Z
2019-12-29T14:34:59Z,42.805,6.029,13.2978,4.59981,2470.04,2019-12-29T16:35:30Z
2019-12-29T14:38:02Z,42.805,6.029,13.2979,4.59981,2470.087,2019-12-29T16:38:33Z
2019-12-29T14:41:05Z,42.805,6.029,13.2980,4.59981,2470.063,2019-12-29T16:41:36Z
2019-12-29T14:44:08Z,42.805,6.029,13.2979,4.59981,2470.053,2019-12-29T16:44:39Z
2019-12-29T14:47:12Z,42.805,6.029,13.2976,4.59981,2470.053,2019-12-29T16:47:43Z
2019-12-29T14:50:15Z,42.805,6.029,13.2976,4.59983,2470.077,2019-12-29T16:50:46Z
2019-12-29T14:53:18Z,42.805,6.029,13.2974,4.59979,2470.053,2019-12-29T16:53:49Z
2019-12-29T14:56:21Z,42.805,6.029,13.2976,4.59985,2470.077,2019-12-29T16:56:52Z
2019-12-29T14:59:24Z,42.805,6.029,13.2982,4.59979,2470.017,2019-12-29T16:59:56Z
2019-12-29T15:02:28Z,42.805,6.029,13.2980,4.59979,2470.063,2019-12-29T17:02:59Z